GFSWCAN_925_rhum_324.txt.gz
RH
79 75 72 69 52 40 30 17 19 35 46 49 43 30 20 31 28 22 42 26 37 82 71 54 56 62 62 78 83 65 68 74 82 88 92 94 86 77 76 60 86 99 97 100 93 97 97 76 81 95 86 79 68 71
80 76 70 68 51 41 32 19 20 35 46 46 40 33 28 35 27 22 41 33 33 53 59 47 48 50 54 59 76 74 68 72 82 91 92 89 85 87 74 86 64 95 87 95 84 85 83 74 77 70 72 74 70 74
79 76 70 67 51 42 34 22 22 36 47 50 44 32 36 32 32 34 47 46 43 54 60 62 64 49 50 48 48 75 70 64 64 74 91 91 81 84 87 79 68 63 54 74 70 76 75 66 63 68 66 69 66 65
81 77 70 66 50 43 35 25 30 47 52 48 41 39 39 41 43 41 50 56 54 58 84 63 50 51 48 44 49 49 52 54 56 74 83 86 91 71 84 71 76 67 66 85 78 73 76 65 64 65 66 65 65 64
82 79 71 64 51 44 37 28 32 38 43 46 45 44 43 46 48 47 52 64 62 56 83 73 51 52 51 53 52 53 51 68 82 84 86 85 81 80 80 78 100 88 96 98 96 76 89 82 67 66 71 69 66 69
80 83 72 63 52 45 40 32 37 43 44 45 49 48 50 47 46 39 53 50 53 47 79 82 53 53 52 52 56 57 61 70 78 84 85 79 66 82 97 97 82 86 88 86 92 77 78 78 75 70 68 69 68 67
80 81 71 64 52 46 43 40 46 49 59 53 49 43 43 48 44 57 74 65 54 55 79 83 71 54 50 53 63 70 71 86 86 89 87 83 78 84 98 97 90 95 90 86 81 82 87 77 80 77 75 71 66 54
77 75 70 63 54 47 46 47 50 50 62 63 66 65 54 47 50 63 68 58 52 54 66 87 79 66 45 68 82 76 89 89 89 88 86 85 85 96 100 96 95 94 90 84 79 76 79 81 82 76 71 66 46 42
76 74 73 63 57 52 51 52 52 50 58 68 66 57 42 42 64 69 66 57 53 59 86 78 87 90 60 70 89 88 88 95 91 93 91 88 93 99 97 96 96 95 96 94 87 84 82 85 82 75 70 58 48 46
80 77 74 67 62 55 55 54 53 59 66 66 62 66 92 71 78 71 61 73 75 74 79 72 73 66 63 73 85 89 90 94 94 84 91 77 93 81 81 89 92 92 92 88 98 82 75 79 76 74 68 62 53 42
97 94 77 64 54 55 57 59 57 67 60 64 72 92 69 77 67 82 93 88 91 83 71 63 68 70 64 73 74 75 87 90 88 89 93 97 94 79 77 86 89 90 90 76 72 75 70 74 77 73 72 61 45 40
98 98 80 60 50 53 58 61 66 65 69 64 61 70 73 76 90 79 96 87 83 68 64 65 62 66 67 68 73 77 79 82 81 88 92 93 87 79 81 86 90 91 84 73 69 74 81 75 71 69 69 62 46 39
98 98 80 72 54 52 59 69 72 69 68 66 62 83 80 85 71 73 87 82 81 67 59 66 68 69 69 76 77 76 72 79 69 93 98 92 86 80 80 84 86 88 85 76 71 70 71 69 70 72 74 56 50 50
99 98 75 70 54 52 71 76 70 70 70 89 82 81 80 86 81 77 72 70 67 61 61 61 65 65 78 74 88 70 64 67 83 97 86 91 81 81 80 71 84 90 87 81 75 70 69 67 68 71 69 66 58 55
99 98 84 74 57 57 74 81 72 76 70 90 79 83 84 68 67 69 63 59 53 57 55 58 61 64 77 70 83 68 62 68 85 87 91 82 77 80 78 72 75 85 88 84 74 72 67 58 64 64 67 70 66 65
98 100 96 78 63 61 79 80 70 65 74 84 72 77 70 74 79 67 60 55 52 54 60 65 66 65 67 70 68 72 65 77 81 75 76 74 70 74 76 69 62 72 72 85 80 74 66 61 57 60 62 70 78 79
100 100 97 88 68 66 82 72 67 93 94 80 86 76 73 69 70 65 60 52 37 49 58 62 55 58 66 77 65 68 70 74 75 71 70 62 63 57 42 57 59 54 62 66 80 79 72 58 43 58 65 62 56 78
98 94 100 92 74 80 68 81 84 87 92 88 94 85 73 71 65 61 57 42 46 44 44 39 48 39 56 59 68 50 59 71 65 71 67 55 49 32 28 26 32 49 56 60 60 72 70 64 51 47 59 58 63 58
97 99 99 84 74 63 85 90 82 91 89 87 84 79 73 68 55 48 46 42 37 36 50 50 42 53 51 55 53 55 57 54 53 52 44 33 33 35 32 32 36 33 34 34 39 35 63 67 55 49 40 45 62 76
95 98 98 74 55 90 94 99 91 88 94 80 78 74 70 67 59 54 53 49 52 56 54 65 62 58 56 50 55 55 52 46 53 53 55 41 30 31 30 31 31 32 35 35 36 37 49 52 42 49 56 49 47 64
100 100 79 64 86 79 85 96 97 94 83 82 75 69 69 66 62 65 63 55 61 67 70 71 65 56 35 31 29 30 35 41 48 50 54 54 34 37 37 34 33 37 39 40 42 46 56 42 40 41 58 61 58 53
100 97 80 71 98 96 88 80 84 78 87 89 82 73 74 79 73 71 67 69 76 71 72 69 62 53 52 50 40 36 35 34 37 40 39 38 42 37 36 34 40 42 41 43 42 41 40 39 48 40 60 63 62 60
98 89 84 99 98 91 92 83 79 84 88 90 88 79 83 76 72 62 70 75 75 57 44 46 44 42 43 40 41 38 35 37 39 36 34 33 33 34 39 37 36 42 45 40 39 40 40 46 53 48 46 51 55 57
86 98 99 99 94 98 99 99 89 91 92 92 88 78 77 80 68 71 73 74 73 49 53 49 46 54 50 49 51 43 35 33 34 34 33 37 43 38 35 38 39 39 42 42 42 43 42 42 44 52 51 48 50 52
96 99 96 99 98 96 98 99 90 89 93 90 82 83 77 72 80 83 72 70 68 63 55 48 49 50 61 56 46 41 35 36 39 47 45 49 50 54 55 53 53 49 46 50 48 46 47 48 49 49 56 59 54 55
95 99 96 93 98 90 94 98 93 92 88 90 76 78 83 81 71 72 76 70 67 63 61 62 64 62 60 47 48 44 42 42 41 48 40 39 51 60 64 70 69 55 50 56 60 58 53 51 52 57 62 59 59 60
97 100 98 79 86 84 91 88 88 83 86 84 86 88 79 74 77 74 87 59 59 33 25 26 33 38 43 42 42 40 38 28 18 19 22 31 42 49 48 51 55 42 41 49 57 61 70 68 64 64 64 64 62 65
91 92 93 89 86 80 88 90 87 82 85 89 82 79 73 72 69 78 69 34 30 27 34 40 38 40 42 43 42 38 22 19 26 30 33 37 39 38 39 42 40 41 47 59 67 68 70 72 68 69 70 68 66 78
93 85 70 80 85 86 84 83 80 84 84 83 76 81 77 80 57 42 34 27 22 26 32 34 33 41 46 46 38 28 26 34 43 71 71 72 60 53 47 48 50 53 56 58 63 70 72 76 84 88 88 91 91 95
86 79 84 89 83 86 83 85 84 91 78 76 75 81 80 68 35 30 31 30 35 34 26 25 20 22 32 45 52 49 45 50 59 61 71 70 60 55 60 66 72 72 72 74 75 75 75 75 82 96 99 100 99 97
79 89 87 87 91 97 99 99 92 86 78 91 92 84 79 90 51 38 32 31 30 31 33 37 35 34 54 64 70 79 78 63 61 59 58 62 66 70 73 79 83 87 95 99 98 97 99 98 97 96 96 97 98 98
93 88 93 99 94 99 99 99 98 99 98 94 89 99 99 90 84 58 36 37 38 41 40 40 50 46 38 46 53 62 68 71 77 82 86 87 92 96 98 99 98 97 98 96 97 97 98 99 99 99 99 97 98 100
97 96 97 92 98 100 100 94 98 98 98 98 96 91 87 83 72 58 38 32 32 32 30 30 35 47 58 62 73 80 87 88 88 90 91 97 99 99 99 98 99 100 99 100 99 99 100 100 100 98 95 98 99 99

GFSWCAN_925_rhum_330.txt.gz
RH
70 63 59 45 22 21 38 45 41 34 29 36 32 26 22 18 16 13 49 33 43 88 75 67 66 62 65 72 76 73 55 70 74 75 86 95 91 81 81 71 89 96 91 97 95 95 96 72 79 97 93 76 77 78
67 64 52 43 26 36 47 49 38 29 30 32 28 26 22 18 14 13 42 36 38 65 70 56 59 59 61 57 83 87 71 81 85 91 93 92 86 90 80 92 68 85 84 94 90 85 65 76 73 63 71 77 78 80
66 63 44 35 31 47 51 44 34 33 33 29 24 23 23 19 16 15 42 41 42 54 59 67 69 56 48 48 46 73 77 74 78 78 92 94 86 87 95 84 82 73 84 83 95 74 84 78 67 65 71 77 76 77
67 56 42 30 38 54 52 46 48 42 37 29 25 24 27 25 24 21 31 36 34 59 88 73 56 60 54 48 47 48 62 64 72 82 86 86 86 79 87 81 96 92 99 98 88 79 87 70 66 69 74 77 78 77
68 47 40 27 46 56 51 54 52 47 39 35 34 31 27 25 24 27 33 39 33 44 85 80 59 62 56 56 54 52 54 74 82 82 86 86 85 88 85 84 98 95 100 100 98 88 94 89 74 76 83 83 81 82
66 43 38 35 53 55 48 52 52 52 47 45 40 34 28 23 19 23 71 37 31 32 77 87 63 58 58 60 65 70 72 83 91 84 88 82 74 88 96 94 95 96 95 94 96 87 87 84 82 80 84 79 79 81
61 43 38 44 52 47 43 40 40 46 47 46 44 40 32 21 11 52 70 52 41 38 81 85 79 60 60 64 78 81 76 91 87 91 92 90 81 88 89 98 97 96 95 87 81 84 89 82 87 76 82 83 81 80
54 43 40 43 54 52 49 44 41 38 36 37 36 32 32 37 40 50 49 43 45 47 63 88 82 72 57 83 88 90 89 90 95 92 90 94 90 97 98 96 96 95 89 87 87 82 84 82 86 86 80 79 78 60
49 43 42 50 58 58 58 50 44 38 35 30 30 29 26 31 51 50 46 43 41 50 88 83 86 82 70 94 91 90 89 94 92 92 93 87 95 99 99 97 96 94 98 96 81 84 89 95 85 76 76 80 56 54
47 43 44 54 62 63 65 60 48 40 35 31 26 32 89 71 56 40 36 68 78 74 82 86 85 84 76 88 92 86 90 97 94 94 89 94 87 78 76 84 91 96 93 81 88 91 90 96 94 89 86 81 62 50
45 44 47 54 61 62 67 61 48 38 33 32 68 92 66 54 45 70 85 83 89 78 76 81 76 81 76 73 83 84 89 90 86 88 90 96 90 77 78 84 89 97 92 85 81 80 82 90 95 95 88 75 55 47
45 46 50 56 55 59 63 52 38 29 46 49 51 61 53 65 80 72 95 87 76 67 77 73 73 78 80 76 77 84 80 82 78 88 86 86 82 69 84 86 86 92 97 88 88 87 82 84 93 92 86 78 69 56
46 48 54 58 60 66 53 41 36 40 43 41 46 69 67 79 56 53 88 87 88 78 83 80 81 81 79 79 87 74 66 76 82 92 97 89 76 76 85 86 85 87 93 90 89 89 84 82 80 96 93 76 68 62
46 51 57 61 68 60 57 54 50 45 43 81 73 64 63 73 69 67 64 75 73 80 81 85 87 80 87 80 91 64 74 74 95 78 65 88 72 78 83 80 83 92 93 94 89 86 86 85 83 82 93 83 74 73
50 58 62 69 72 70 66 58 48 49 56 84 66 66 73 66 76 77 76 74 75 77 70 69 76 78 84 80 85 69 66 74 82 79 88 79 72 74 71 78 77 84 88 84 75 79 86 84 80 80 84 96 95 82
60 64 68 77 75 69 61 47 46 55 68 79 71 78 74 77 81 73 69 70 68 74 71 72 71 67 78 74 70 65 61 74 80 78 80 80 60 52 52 57 68 68 74 79 85 72 65 75 85 80 76 75 76 95
63 75 71 78 73 65 51 39 49 84 90 72 90 81 75 73 71 66 63 61 56 58 60 69 60 59 78 80 70 73 71 77 82 83 84 77 55 48 43 47 45 40 40 41 53 72 65 62 67 76 84 76 78 70
83 71 68 78 64 49 47 59 76 87 86 86 87 84 78 75 72 67 61 51 50 57 50 41 59 43 74 71 76 64 80 81 78 68 62 51 40 36 35 36 36 36 37 41 43 48 66 58 57 53 62 76 66 61
70 64 70 70 62 56 70 87 76 86 89 87 86 84 78 75 66 57 55 50 47 46 57 52 46 49 49 57 58 64 66 62 57 55 46 39 36 35 36 37 38 39 40 42 42 46 52 62 56 56 54 67 70 70
63 76 86 67 52 64 90 94 89 82 87 81 82 78 77 74 70 67 64 60 60 60 54 66 50 51 53 55 62 60 56 49 58 54 53 44 38 37 35 34 35 36 35 34 35 39 44 51 58 54 53 61 59 57
85 91 68 52 70 70 87 92 95 90 88 86 83 74 76 71 71 68 66 68 64 62 60 65 62 58 41 36 39 37 39 42 51 51 55 56 38 40 36 35 36 38 42 42 46 44 48 48 48 50 58 61 62 53
84 76 61 66 97 87 90 87 86 90 89 92 80 75 72 75 67 65 77 69 72 71 73 72 66 52 54 48 39 37 34 40 42 45 44 46 49 45 40 38 42 43 43 41 44 49 48 48 48 48 49 57 72 66
77 66 74 94 91 90 98 94 81 84 87 89 89 76 87 80 71 75 67 72 73 61 49 52 50 47 45 43 45 44 43 46 50 49 48 47 45 43 41 39 44 48 50 44 54 56 55 53 55 54 53 55 54 52
72 76 97 98 90 96 93 98 92 94 94 90 86 82 81 80 80 74 73 76 76 61 62 54 52 62 63 61 60 50 45 46 45 45 45 45 45 40 44 50 57 61 63 60 45 46 44 43 51 56 59 60 58 62
85 90 92 96 92 87 88 99 94 87 96 95 82 90 87 80 84 88 78 75 74 71 58 51 55 61 71 66 57 49 47 46 44 42 36 40 42 51 55 51 43 42 41 34 32 36 34 35 35 43 48 48 54 65
98 98 90 86 97 89 86 98 98 95 93 92 77 85 88 85 75 76 75 75 75 66 59 59 67 74 73 56 52 47 39 38 39 45 38 39 46 46 39 43 36 26 28 35 39 42 44 43 47 57 65 69 70 70
95 99 95 82 88 85 92 92 89 87 90 87 91 91 82 76 79 74 85 59 61 41 32 27 31 35 36 35 37 35 37 38 37 36 33 36 39 36 22 28 31 32 37 39 45 47 50 51 59 65 63 60 72 88
88 92 96 97 95 82 93 92 87 78 83 88 81 78 72 73 67 75 66 37 31 28 29 28 27 24 26 30 34 37 40 42 44 46 42 36 28 24 29 31 34 38 45 49 51 54 58 61 66 76 88 94 94 99
99 91 84 96 94 92 88 82 78 78 84 78 78 83 76 78 52 39 33 36 33 30 31 33 30 27 32 37 38 38 39 42 48 57 61 64 41 33 28 31 49 54 55 57 62 68 72 78 86 98 100 100 100 100
96 84 86 89 83 83 83 85 82 92 81 77 74 77 77 68 37 30 33 39 34 27 21 20 21 26 25 28 28 30 26 27 32 45 60 62 48 46 53 57 64 68 72 74 80 89 100 98 98 98 99 99 98 97
84 87 89 86 82 88 91 95 91 85 90 97 93 83 81 91 45 33 28 28 27 21 21 24 22 20 21 24 26 28 23 20 21 27 35 43 49 54 61 68 75 83 89 91 90 94 98 98 98 98 97 97 97 98
93 90 92 99 97 98 98 97 95 98 100 85 79 99 96 88 68 48 29 27 31 36 29 27 29 26 25 25 23 23 24 28 36 37 39 44 52 68 75 78 84 89 91 91 94 95 93 94 94 95 94 94 90 94
99 100 96 92 96 100 100 89 98 100 98 99 93 96 90 78 66 46 32 31 29 26 27 27 26 25 27 29 32 35 41 41 38 36 40 47 53 60 62 58 57 64 72 75 77 93 100 99 99 99 100 100 100 100

GFSWCAN_925_rhum_336.txt.gz
RH
68 64 47 34 20 15 18 19 28 37 36 42 32 29 26 20 16 17 58 37 37 48 57 51 49 40 38 36 31 48 42 40 26 37 36 45 45 50 45 46 64 85 87 84 90 91 95 63 62 81 86 77 61 61
66 56 42 27 16 28 34 31 38 38 33 30 26 22 23 20 16 20 45 45 40 41 60 63 64 65 64 53 40 50 46 46 42 46 41 40 46 49 51 65 48 87 94 96 86 77 65 77 89 70 65 64 63 64
64 45 43 17 30 47 38 32 41 36 32 29 28 24 23 19 14 17 48 43 41 47 47 49 59 61 62 64 62 34 48 51 50 52 48 49 60 56 67 69 91 71 94 96 94 85 94 86 69 54 52 59 57 55
56 42 28 27 49 49 36 35 40 35 32 30 28 25 22 21 28 36 39 40 40 36 53 64 57 61 59 53 57 52 55 59 52 38 47 47 56 58 62 64 97 99 97 100 94 78 73 61 55 54 56 56 54 55
46 36 27 49 55 44 38 39 39 37 32 27 22 22 24 24 18 19 27 35 38 36 44 57 47 58 58 54 52 51 49 42 39 47 50 57 52 62 54 74 100 99 100 99 94 71 89 78 60 57 61 58 56 56
44 27 50 56 57 54 39 37 36 35 34 33 25 20 18 13 11 26 38 41 40 36 41 53 57 54 56 58 55 56 54 49 46 47 52 52 62 70 74 94 98 96 91 94 93 77 81 74 67 61 58 57 56 56
30 49 58 61 62 53 47 41 41 36 28 24 21 16 12 9 9 51 51 34 34 45 50 50 46 50 57 56 56 51 55 54 49 52 57 58 64 61 85 100 97 93 90 83 78 77 70 60 66 64 59 53 50 49
49 59 63 66 57 47 42 39 34 29 22 19 20 23 24 22 36 44 38 34 37 40 38 53 54 47 55 49 50 56 48 47 56 54 54 57 58 66 95 98 93 88 92 80 70 62 65 66 63 54 48 40 37 40
61 60 67 66 57 46 37 33 32 30 26 24 23 21 18 30 48 50 40 36 38 40 50 42 47 55 53 57 54 49 48 62 58 54 55 55 66 100 98 96 94 96 99 89 64 62 62 64 63 55 49 44 37 36
60 57 62 62 56 44 38 35 32 30 26 16 12 35 99 59 38 31 47 52 60 46 43 50 44 52 45 50 50 48 50 58 56 61 60 59 86 70 74 82 92 92 84 74 78 83 79 78 74 64 57 54 43 41
54 51 51 56 56 47 40 34 32 28 16 21 58 78 57 36 45 50 99 95 65 54 45 50 39 49 49 42 47 46 53 53 52 67 50 56 69 62 66 82 86 90 78 68 67 69 78 79 77 72 68 64 58 54
57 58 53 52 51 46 39 32 27 19 23 32 31 40 39 40 79 91 87 57 48 46 49 42 46 43 52 48 41 53 50 52 64 64 51 64 57 52 60 72 84 87 83 69 60 61 68 78 86 90 81 70 68 67
59 56 51 47 42 35 29 22 16 17 14 19 34 66 50 73 81 60 74 57 57 49 51 47 50 42 51 43 49 43 52 64 51 52 57 70 52 50 57 59 76 80 81 81 75 70 60 64 68 76 88 88 74 79
66 63 56 46 36 26 20 24 20 22 23 64 75 65 71 70 35 34 35 40 52 44 40 38 51 43 45 51 53 49 54 53 49 60 84 58 45 49 55 62 52 48 50 63 78 78 74 60 61 67 72 84 95 98
65 58 50 45 39 33 27 25 26 27 52 65 49 70 57 59 56 59 56 53 43 41 42 44 43 38 50 62 50 51 60 54 38 47 66 47 46 51 47 50 41 40 43 41 48 61 75 73 63 57 61 66 70 79
61 57 59 49 39 31 29 29 30 43 65 59 58 66 61 59 68 58 49 55 42 38 36 31 39 45 51 45 45 53 42 48 47 40 42 42 48 50 48 45 42 41 42 42 41 45 59 66 66 59 55 60 62 67
45 67 61 43 33 26 28 29 39 94 72 63 72 58 57 52 55 47 38 42 45 29 41 38 43 51 49 50 44 38 41 46 40 41 38 40 42 42 43 45 43 42 42 43 42 44 48 54 56 55 57 64 61 61
75 63 51 37 30 29 31 43 75 97 89 70 75 64 56 47 52 48 43 38 28 29 29 38 44 46 48 39 45 48 54 51 41 40 41 42 41 41 38 37 43 43 41 40 40 38 42 50 54 54 59 57 55 58
66 58 49 37 33 38 73 80 77 83 76 68 60 54 48 50 45 41 40 42 38 32 30 27 33 36 40 41 43 46 49 49 53 50 45 43 39 39 41 42 44 38 38 38 39 38 42 47 52 55 55 58 59 62
60 50 42 35 32 53 100 82 76 65 72 69 53 52 50 47 45 44 40 36 31 29 32 30 22 28 32 36 40 42 43 44 43 43 38 35 37 40 40 40 35 38 36 37 38 44 42 40 45 49 54 60 66 72
43 40 36 32 47 72 70 72 74 68 67 66 58 46 50 43 42 42 41 43 32 32 29 26 30 34 42 43 47 43 42 39 35 32 32 32 37 38 38 40 41 38 38 38 40 42 48 47 50 53 58 63 67 75
59 42 42 52 73 81 80 82 68 66 68 65 57 49 48 53 49 48 47 40 37 36 31 30 30 34 41 44 43 38 39 39 46 47 41 39 38 38 36 34 36 36 38 44 48 53 55 58 62 65 72 78 72 75
48 43 58 66 99 95 92 84 68 66 75 70 62 58 61 56 55 57 52 43 40 44 42 37 40 42 36 41 42 43 46 44 41 40 42 41 41 44 42 40 43 47 47 51 62 59 57 51 55 56 61 59 56 36
62 76 98 96 84 99 87 90 70 68 67 65 65 71 65 63 57 53 47 41 40 47 48 49 45 46 50 51 43 39 43 43 38 39 44 46 45 44 45 43 47 55 59 60 54 44 44 42 41 54 50 39 42 45
98 96 96 96 86 90 93 94 78 72 84 74 71 76 76 62 62 64 52 47 46 44 41 46 47 42 36 37 40 44 50 52 43 44 47 49 44 46 52 54 62 63 58 55 49 32 33 37 39 42 48 51 61 70
90 95 86 84 87 78 79 88 86 85 75 78 67 64 66 64 70 65 46 49 47 42 50 46 43 45 48 44 37 43 47 55 54 47 45 56 50 45 47 54 59 52 23 25 39 37 41 42 49 56 57 61 66 78
92 91 79 68 62 65 78 75 66 72 82 82 74 83 76 72 72 52 49 54 45 45 43 43 43 40 36 46 50 48 49 48 51 48 49 40 38 49 48 51 50 41 25 25 33 38 41 50 58 62 68 75 88 99
76 78 92 82 78 65 86 77 82 85 79 64 65 79 75 77 56 46 50 58 60 48 53 45 32 39 44 45 38 33 36 38 44 42 41 40 38 36 36 36 40 40 40 30 32 35 42 53 59 62 70 91 99 98
89 72 74 91 84 80 82 81 68 58 61 62 89 62 62 44 51 52 54 40 44 62 63 57 42 31 27 23 23 26 29 36 57 63 75 63 60 38 33 35 39 40 38 37 37 46 54 59 66 70 70 77 88 94
89 66 79 83 77 74 85 71 73 72 70 60 50 51 49 54 63 40 43 52 61 57 38 27 23 26 25 26 35 41 34 34 34 39 51 55 36 20 23 27 33 38 44 47 48 53 57 62 73 80 81 83 87 88
72 74 82 74 80 83 90 97 98 86 86 91 94 92 70 68 54 40 40 45 42 34 34 36 31 24 24 26 28 34 43 31 29 30 31 32 33 30 31 34 38 39 40 45 54 61 65 75 85 82 86 96 99 99
84 89 81 84 95 96 94 100 99 100 100 99 100 98 99 99 97 56 32 34 39 36 29 28 29 28 22 20 18 19 19 19 20 21 22 26 24 25 30 37 38 41 45 52 63 68 72 73 79 95 100 98 87 83
97 95 92 95 95 97 98 97 80 92 98 94 100 100 100 100 91 62 33 30 22 20 21 20 20 21 20 20 20 21 22 23 25 27 27 27 28 33 37 37 40 45 53 61 62 58 59 62 68 72 75 79 79 78

GFSWCAN_925_rhum_342.txt.gz
RH
100 100 86 80 70 66 59 25 16 14 14 16 25 29 33 35 37 47 50 33 34 47 48 44 41 42 29 30 36 33 36 32 28 34 35 36 42 46 54 52 60 76 96 96 98 96 97 68 60 85 69 56 60 52
99 92 83 71 66 62 30 19 14 17 24 31 33 30 36 34 40 40 40 36 37 41 49 42 41 43 48 48 33 37 37 34 34 34 33 37 52 54 52 81 57 84 98 99 98 98 78 71 64 54 53 58 57 47
99 87 72 65 61 30 20 15 20 41 42 34 34 37 33 37 35 39 42 40 39 43 43 43 44 40 40 44 47 37 38 37 40 36 45 46 63 60 70 78 74 88 89 95 98 90 77 68 58 52 53 52 42 38
95 77 67 61 32 20 16 22 44 46 40 36 38 33 36 37 36 34 39 32 26 32 50 49 40 40 37 36 37 37 38 35 33 38 47 46 59 54 88 91 99 99 96 97 94 70 63 58 57 57 52 48 39 39
81 69 62 38 22 17 26 43 48 44 44 38 35 36 37 36 39 37 33 28 31 27 46 51 39 40 39 34 35 35 35 41 42 51 52 60 56 63 63 84 100 98 98 100 96 79 85 71 60 58 59 54 40 40
73 63 42 24 19 30 40 47 41 39 35 38 35 41 43 37 34 24 47 32 30 33 38 56 40 38 40 38 36 37 37 42 41 42 50 52 51 66 71 98 97 92 86 84 91 73 75 70 64 57 41 34 34 37
66 48 27 28 32 37 47 46 41 38 37 41 42 39 35 30 36 45 49 33 30 25 38 43 44 40 35 37 39 42 39 42 43 48 56 53 57 68 96 100 96 89 87 75 70 68 68 55 49 35 29 28 33 31
54 33 32 38 36 47 46 42 40 38 44 40 35 27 23 29 35 40 36 34 32 26 28 48 46 46 41 42 44 34 42 42 44 47 46 52 52 70 100 98 88 86 72 65 59 56 56 50 43 38 31 26 26 27
39 37 42 38 42 47 45 40 40 41 37 26 28 30 37 35 28 41 38 35 30 29 38 33 47 55 40 36 41 38 37 54 38 51 49 48 63 99 96 93 88 83 79 66 57 58 58 62 55 46 42 37 34 30
36 51 45 46 46 44 41 40 38 29 33 38 44 45 96 50 41 44 40 54 47 32 27 34 31 50 37 38 38 40 38 52 53 47 42 58 76 73 80 80 77 71 54 50 67 72 67 73 68 57 52 50 47 47
54 60 56 44 43 43 40 31 28 40 43 50 53 66 42 37 47 48 97 95 57 43 29 30 37 41 30 41 40 33 46 40 52 54 54 62 75 68 69 67 65 58 49 46 48 53 55 61 65 63 61 60 61 61
78 70 63 52 49 42 31 33 32 39 37 34 29 37 40 40 85 95 91 47 38 42 34 38 38 37 38 28 35 38 40 42 60 46 53 74 69 62 65 61 58 60 56 52 47 45 48 50 56 63 64 66 70 75
84 78 61 56 40 38 33 25 32 22 20 20 34 63 58 80 83 56 83 50 50 34 35 38 42 33 35 29 35 33 44 51 39 53 65 74 63 60 65 63 57 54 54 54 57 47 44 45 46 47 52 58 59 71
64 58 52 40 42 30 24 19 24 30 27 50 74 68 67 68 30 27 26 36 33 34 37 33 30 29 30 40 40 40 36 36 47 67 95 59 51 59 53 40 36 36 39 48 56 56 48 44 44 44 46 50 56 62
53 46 40 35 32 27 24 25 37 42 39 51 47 81 51 39 41 39 33 38 36 35 32 31 29 31 38 50 39 42 46 48 38 47 71 47 47 46 41 34 31 32 33 33 38 51 56 51 49 50 49 48 50 60
45 42 37 30 25 21 19 28 54 51 42 47 43 50 43 50 51 40 39 41 33 28 24 21 28 37 40 37 40 52 43 39 36 46 44 44 43 39 34 30 30 30 31 32 34 45 48 47 47 47 50 51 52 58
45 60 38 28 23 21 32 54 68 82 58 52 51 39 42 43 41 37 33 31 25 22 30 29 37 35 29 39 31 28 37 40 43 42 39 40 38 37 32 32 31 29 29 30 31 33 40 46 46 44 45 45 46 49
60 46 38 29 27 29 61 67 83 98 74 52 69 47 39 36 38 36 29 24 22 22 22 30 28 31 40 30 40 37 36 39 38 37 38 36 36 34 32 33 31 28 28 28 29 30 34 43 43 43 44 45 51 51
48 38 34 35 42 44 99 84 59 72 57 48 42 35 36 36 33 30 28 26 26 24 24 22 27 28 29 28 38 37 38 37 39 39 38 37 36 33 33 32 30 28 28 28 29 31 31 35 37 39 40 43 47 50
41 40 38 36 33 75 98 71 53 59 62 49 40 39 36 33 32 34 30 26 18 19 24 24 25 28 30 32 32 33 34 34 38 42 40 36 35 34 34 32 26 27 26 29 30 33 32 33 33 38 47 51 48 49
32 40 31 28 58 66 61 59 59 54 51 52 39 37 37 32 32 34 28 19 20 19 23 28 32 30 31 31 30 32 34 34 36 36 37 36 33 30 32 29 28 28 28 30 32 36 36 40 42 47 57 59 52 49
46 33 36 48 89 72 75 66 58 48 53 53 42 37 45 53 45 34 24 28 28 24 25 30 35 36 36 36 36 37 35 36 34 31 31 30 29 27 26 27 27 29 30 31 35 40 44 43 40 38 47 48 49 55
38 37 62 94 100 99 86 69 62 53 72 60 50 52 54 48 40 26 41 28 27 20 21 26 33 34 37 37 36 35 36 32 30 28 27 24 26 27 27 27 31 34 34 38 40 38 37 34 40 46 56 54 47 49
41 84 100 100 85 100 73 82 53 59 57 56 60 58 53 51 34 37 40 34 30 23 24 24 28 34 34 36 37 36 33 25 24 26 26 26 30 30 29 29 32 36 38 42 36 31 37 48 47 54 53 58 60 74
92 100 99 97 82 92 98 99 69 76 94 71 63 64 62 39 48 52 42 44 38 33 31 29 28 29 30 29 27 29 29 28 28 30 31 30 30 32 33 32 35 39 43 45 38 38 32 32 37 43 53 69 71 84
96 100 94 95 94 87 82 96 99 90 74 90 58 56 51 55 74 80 47 46 41 36 40 36 34 31 31 28 27 29 32 31 29 28 31 35 33 38 40 42 44 44 47 45 43 45 49 49 54 56 61 50 66 68
91 93 64 47 49 52 78 76 61 83 98 99 66 83 80 91 96 57 54 43 40 31 32 34 31 30 28 28 28 28 35 36 33 31 33 39 37 37 38 40 40 40 41 46 48 44 40 38 39 39 39 49 55 63
75 65 86 66 74 61 99 86 97 100 78 55 61 99 95 90 70 62 57 42 38 33 34 35 32 30 29 32 32 36 39 38 37 39 42 44 44 40 37 37 40 41 42 43 39 31 32 36 40 44 45 52 56 56
77 61 71 93 97 73 92 91 70 49 52 55 97 68 69 56 62 69 66 48 44 39 42 43 37 30 36 41 42 44 43 44 51 56 67 70 65 53 49 47 44 39 36 37 36 37 39 44 46 46 47 45 49 60
77 61 83 99 97 90 86 84 70 70 58 58 55 53 54 64 79 73 71 62 61 58 52 48 46 46 58 67 73 75 67 57 51 48 58 62 53 35 21 20 23 24 26 27 31 39 41 46 49 49 45 49 61 83
66 67 85 80 96 96 99 99 98 87 96 95 99 94 78 76 69 71 73 72 66 66 62 67 65 56 59 76 79 82 82 57 45 49 41 32 32 32 24 20 19 21 24 26 31 37 41 49 51 49 57 75 88 98
86 99 98 100 98 99 99 100 100 100 100 100 100 99 96 99 97 73 70 73 73 91 75 72 70 67 44 39 29 26 24 19 18 21 25 22 18 17 19 20 19 20 23 26 30 36 40 44 49 63 94 98 98 96
98 100 96 97 98 100 100 100 88 100 100 99 100 100 100 99 100 95 67 53 35 30 39 38 32 30 25 22 18 15 19 17 17 17 16 17 18 21 24 27 29 32 35 37 38 41 45 49 58 76 92 91 93 98